Погода в Семибуграх

Россия / Астраханская область     46°09′42″N   48°15′00″E
темп.,
°C
ветер,
м/с
пор.,
м/с
влажн.,
%
обл.,
%
осадки,
мм/ч
давл.,
гПа
погр.,
м
24 мая, вт
вт2401:00+16ссз4960100 0.0 1003371
04:00+15ссз2465100 0.0 1004166
07:00+14ссз5675100 0.0 1005422
10:00+16ссз6758100 0.0 1006917
13:00+19ссз7741100 0.0 10071997
16:00+20сз773498 0.0 10082228
19:00+18сз5740100 0.0 1009520
22:00+15сз484719 0.0 1011153
25 мая, ср
ср2501:00+13сз33534 0.0 101242
04:00+12сз345698 0.0 101363
07:00+14сз355579 0.0 1014221
10:00+19сз463611 0.0 10152173
13:00+22зсз562924 0.0 10162789
16:00+22зсз672880 0.0 10162720
19:00+20зсз583681 0.0 1017645
22:00+16з474514 0.0 1018129
26 мая, чт
чт2601:00+15зсз355110 0.0 101879
04:00+14з335712 0.0 101830
07:00+16з365584 0.0 1019264
10:00+20з563780 0.0 10192379
13:00+21з6734100 0.0 10192792
16:00+21зсз463790 0.0 10191887
19:00+20з354215 0.0 1018346
22:00+16юз22503 0.0 101912
27 мая, пт
пт2701:00+15ююз335943 0.0 101841
04:00+14юз3460100 0.0 101846
07:00+16юз3566100 0.0 1018146
10:00+19з575196 0.0 1018926
13:00+20зюз694381 0.0 10171299
16:00+22зюз884281 0.0 10171993
19:00+20ююз475127 0.0 1017263
22:00+18ююз61066100 0.0 1018266
28 мая, сб
сб2801:00+18юз596812 0.0 1017267
04:00+16юз3470100 0.0 101868
07:00+18юз126273 0.0 101853
10:00+24ююз35420 0.0 10181642
13:00+26ю763520 0.0 10172382
16:00+25ю76381 0.0 10171942
19:00+22ю57490 0.0 1018695
22:00+17ююв37651 0.0 1018163